Hillsdale, MI

10:23 AM EST on November 17, 2019 (GMT -0500)
Hillsdale Municipal

Weather History for KJYM - September, 2019

Change the Weather History Date:

Tuesday, September 24, 2019

  Actual Average Record
Temperature  
Mean Temperature 62 °F -  
Max Temperature 76 °F 66 °F 89 °F (2017)
Min Temperature 49 °F 42 °F 27 °F (1976)
Degree Days  
Heating Degree Days 3    
Growing Degree Days 12 (Base 50)    
Moisture  
Dew Point 52 °F    
Average Humidity 70    
Maximum Humidity 97    
Minimum Humidity 38    
Precipitation  
Precipitation 0.00 in - - ()
Sea Level Pressure  
Sea Level Pressure 29.96 in    
Wind  
Wind Speed 4 mph ()    
Max Wind Speed 14 mph    
Max Gust Speed 20 mph    
Visibility 9.8 miles    
Events      
Averages and records for this station are not official NWS values.
T = Trace of Precipitation, MM = Missing Value Source: Averaged Metar Reports

Daily Weather History Graph

Daily Weather History Graph

Search for Another Location

Airport or City:

Astronomy

Sep. 24, 2019 Rise Set
Actual Time 7:27 AM EDT 7:32 PM EDT
Civil Twilight 6:59 AM EDT 8:00 PM EDT
Nautical Twilight 6:27 AM EDT 8:32 PM EDT
Astronomical Twilight 5:54 AM EDT 9:05 PM EDT
Moon 2:05 AM EDT (9/24) 5:22 PM EDT (9/24)
Length of Visible Light 13h 00m
Length of Day
12h 04m
Waning Crescent, 23% of the Moon is Illuminated
Sep 24
Waning Crescent
Sep 28
New
Oct 5
First Quarter
Oct 13
Full
Oct 21
Last Quarter

Hourly Weather History & Observations

Time (EDT) Temp. Dew Point Humidity Pressure Visibility Wind Dir Wind Speed Gust Speed Precip Events Conditions
12:15 AM 54.9 °F 50.4 °F 85% 30.01 in 10.0 mi West 3.5 mph - N/A   Clear
12:19 AM 55.2 °F 50.4 °F 84% 30.01 in 10.0 mi West 3.5 mph - N/A   Clear
12:38 AM 55.0 °F 50.4 °F 84% 30.01 in 10.0 mi West 3.5 mph - N/A   Clear
12:56 AM 53.8 °F 50.0 °F 87% 30.01 in 10.0 mi West 3.5 mph - N/A   Clear
1:15 AM 54.5 °F 50.5 °F 86% 30.01 in 10.0 mi Calm Calm - N/A   Clear
1:35 AM 52.5 °F 49.8 °F 91% 30.01 in 10.0 mi Calm Calm - N/A   Clear
1:59 AM 52.7 °F 50.2 °F 91% 30.01 in 7.0 mi Calm Calm - N/A   Clear
2:17 AM 51.8 °F 49.6 °F 92% 30.01 in 10.0 mi Calm Calm - N/A   Clear
2:36 AM 51.6 °F 50.2 °F 95% 30.01 in 10.0 mi Calm Calm - N/A   Clear
2:55 AM 49.8 °F 48.6 °F 95% 30.00 in 10.0 mi Calm Calm - N/A   Clear
3:15 AM 50.2 °F 49.1 °F 96% 30.00 in 10.0 mi Calm Calm - N/A   Clear
3:38 AM 50.9 °F 49.8 °F 96% 29.99 in 7.0 mi Calm Calm - N/A   Clear
3:56 AM 50.4 °F 49.5 °F 97% 29.99 in 5.0 mi Calm Calm - N/A   Clear
4:15 AM 50.4 °F 49.6 °F 97% 30.00 in 2.0 mi Calm Calm - N/A   Scattered Clouds
4:35 AM 50.4 °F 49.6 °F 97% 30.00 in 10.0 mi WSW 3.5 mph - N/A   Mostly Cloudy
4:59 AM 53.6 °F 52.2 °F 95% 30.00 in 10.0 mi Calm Calm - N/A   Mostly Cloudy
5:17 AM 52.9 °F 51.8 °F 96% 30.00 in 10.0 mi Calm Calm - N/A   Scattered Clouds
5:35 AM 52.7 °F 51.4 °F 95% 30.00 in 10.0 mi Calm Calm - N/A   Mostly Cloudy
5:36 AM 52.5 °F 51.4 °F 96% 30.00 in 10.0 mi Calm Calm - N/A   Mostly Cloudy
5:55 AM 52.9 °F 51.8 °F 96% 30.00 in 10.0 mi Calm Calm - N/A   Mostly Cloudy
6:15 AM 54.9 °F 53.2 °F 94% 30.01 in 10.0 mi Calm Calm - N/A   Overcast
6:38 AM 55.4 °F 53.6 °F 94% 30.01 in 10.0 mi West 3.5 mph - N/A   Overcast
6:56 AM 55.0 °F 52.9 °F 92% 30.01 in 10.0 mi West 4.6 mph - N/A   Scattered Clouds
7:15 AM 54.5 °F 52.7 °F 94% 30.01 in 10.0 mi WSW 4.6 mph - N/A   Clear
7:16 AM 54.5 °F 52.7 °F 94% 30.01 in 10.0 mi WSW 4.6 mph - N/A   Clear
7:35 AM 54.7 °F 52.7 °F 93% 30.01 in 10.0 mi WSW 3.5 mph - N/A   Clear
7:59 AM 54.9 °F 53.1 °F 94% 30.02 in 10.0 mi West 3.5 mph - N/A   Clear
8:17 AM 56.3 °F 54.0 °F 92% 30.01 in 10.0 mi West 4.6 mph - N/A   Clear
8:35 AM 57.6 °F 54.9 °F 91% 30.02 in 10.0 mi West 5.8 mph - N/A   Clear
8:55 AM 59.4 °F 55.9 °F 88% 30.02 in 10.0 mi West 4.6 mph - N/A   Clear
8:56 AM 59.5 °F 56.1 °F 88% 30.02 in 10.0 mi West 4.6 mph - N/A   Clear
9:15 AM 61.7 °F 56.7 °F 84% 30.02 in 10.0 mi West 6.9 mph - N/A   Clear
9:19 AM 61.9 °F 57.0 °F 84% 30.02 in 10.0 mi West 6.9 mph - N/A   Clear
9:38 AM 63.5 °F 57.4 °F 80% 30.02 in 10.0 mi West 5.8 mph - N/A   Clear
9:56 AM 64.8 °F 57.0 °F 76% 30.02 in 10.0 mi WNW 8.1 mph - N/A   Clear
10:15 AM 66.7 °F 56.1 °F 69% 30.02 in 10.0 mi West 4.6 mph - N/A   Clear
10:35 AM 68.4 °F 54.7 °F 62% 30.01 in 10.0 mi West 5.8 mph - N/A   Clear
10:36 AM 68.5 °F 54.7 °F 61% 30.01 in 10.0 mi West 6.9 mph - N/A   Clear
10:59 AM 70.2 °F 51.4 °F 51% 30.01 in 10.0 mi West 11.5 mph - N/A   Clear
11:17 AM 71.1 °F 48.9 °F 45% 30.01 in 10.0 mi West 9.2 mph - N/A   Clear
11:35 AM 72.1 °F 48.9 °F 44% 30.00 in 10.0 mi West 11.5 mph - N/A   Clear
11:55 AM 72.1 °F 45.7 °F 39% 30.00 in 10.0 mi West 10.4 mph 19.6 mph N/A   Scattered Clouds
11:56 AM 72.3 °F 45.9 °F 39% 30.00 in 10.0 mi West 9.2 mph 19.6 mph N/A   Scattered Clouds
12:15 PM 73.0 °F 46.9 °F 39% 29.99 in 10.0 mi WNW 9.2 mph - N/A   Clear
12:20 PM 72.9 °F 48.0 °F 41% 29.99 in 10.0 mi WSW 8.1 mph - N/A   Clear
12:38 PM 73.6 °F 47.8 °F 40% 29.99 in 10.0 mi West 8.1 mph - N/A   Clear
12:56 PM 74.3 °F 47.3 °F 38% 29.98 in 10.0 mi West 9.2 mph - N/A   Scattered Clouds
1:15 PM 73.8 °F 48.6 °F 41% 29.98 in 10.0 mi West 12.7 mph - N/A   Clear
1:16 PM 73.9 °F 48.4 °F 40% 29.98 in 10.0 mi West 11.5 mph - N/A   Clear
1:35 PM 73.9 °F 48.6 °F 41% 29.97 in 10.0 mi WNW 10.4 mph - N/A   Clear
1:36 PM 74.1 °F 48.6 °F 40% 29.97 in 10.0 mi WNW 9.2 mph - N/A   Clear
1:59 PM 74.3 °F 48.4 °F 40% 29.96 in 10.0 mi WSW 6.9 mph - N/A   Clear
2:17 PM 74.5 °F 48.4 °F 40% 29.96 in 10.0 mi West 8.1 mph - N/A   Clear
2:35 PM 73.8 °F 49.3 °F 42% 29.96 in 10.0 mi West 8.1 mph - N/A   Scattered Clouds
2:55 PM 74.7 °F 49.6 °F 41% 29.95 in 10.0 mi WSW 9.2 mph - N/A   Clear
2:56 PM 74.7 °F 49.6 °F 41% 29.95 in 10.0 mi WSW 8.1 mph - N/A   Clear
3:15 PM 73.9 °F 49.3 °F 42% 29.94 in 10.0 mi West 10.4 mph - N/A   Clear
3:20 PM 74.3 °F 50.0 °F 42% 29.94 in 10.0 mi West 8.1 mph 16.1 mph N/A   Clear
3:38 PM 75.0 °F 50.4 °F 42% 29.94 in 10.0 mi West 13.8 mph - N/A   Scattered Clouds
3:56 PM 75.4 °F 50.9 °F 42% 29.93 in 10.0 mi WSW 9.2 mph 16.1 mph N/A   Scattered Clouds
4:15 PM 73.9 °F 51.6 °F 45% 29.93 in 10.0 mi West 10.4 mph - N/A   Mostly Cloudy
4:16 PM 73.8 °F 51.8 °F 46% 29.93 in 10.0 mi West 10.4 mph - N/A   Mostly Cloudy
4:35 PM 75.0 °F 52.5 °F 45% 29.93 in 10.0 mi West 10.4 mph 16.1 mph N/A   Mostly Cloudy
4:59 PM 75.0 °F 53.4 °F 47% 29.92 in 10.0 mi WSW 11.5 mph 17.3 mph N/A   Scattered Clouds
5:17 PM 74.1 °F 54.0 °F 49% 29.92 in 10.0 mi West 6.9 mph - N/A   Scattered Clouds
5:35 PM 74.5 °F 54.1 °F 49% 29.92 in 10.0 mi WSW 6.9 mph - N/A   Mostly Cloudy
5:36 PM 74.7 °F 54.3 °F 49% 29.92 in 10.0 mi WSW 8.1 mph - N/A   Mostly Cloudy
5:55 PM 73.8 °F 54.0 °F 50% 29.91 in 10.0 mi WSW 8.1 mph - N/A   Scattered Clouds
6:15 PM 72.3 °F 54.3 °F 53% 29.91 in 10.0 mi WSW 4.6 mph - N/A   Mostly Cloudy
6:38 PM 71.1 °F 55.2 °F 57% 29.91 in 10.0 mi SW 8.1 mph - N/A   Overcast
6:56 PM 71.1 °F 55.0 °F 57% 29.91 in 10.0 mi SSW 5.8 mph - N/A   Overcast
7:15 PM 70.0 °F 54.9 °F 59% 29.91 in 10.0 mi SSW 4.6 mph - N/A   Mostly Cloudy
7:16 PM 69.8 °F 54.9 °F 59% 29.91 in 10.0 mi SSW 4.6 mph - N/A   Mostly Cloudy
7:35 PM 67.8 °F 55.0 °F 64% 29.90 in 10.0 mi SSW 4.6 mph - N/A   Scattered Clouds
7:59 PM 65.8 °F 55.6 °F 69% 29.90 in 10.0 mi South 4.6 mph - N/A   Clear
8:17 PM 64.6 °F 55.6 °F 73% 29.90 in 10.0 mi South 5.8 mph - N/A   Clear
8:35 PM 64.6 °F 55.9 °F 74% 29.90 in 10.0 mi SSW 4.6 mph - N/A   Clear
8:36 PM 64.6 °F 55.9 °F 74% 29.90 in 10.0 mi SSW 4.6 mph - N/A   Clear
8:55 PM 64.2 °F 55.8 °F 74% 29.89 in 10.0 mi South 4.6 mph - N/A   Scattered Clouds
8:56 PM 64.2 °F 55.8 °F 74% 29.89 in 10.0 mi South 4.6 mph - N/A   Scattered Clouds
9:15 PM 64.0 °F 55.9 °F 75% 29.89 in 10.0 mi South 4.6 mph - N/A   Scattered Clouds
9:38 PM 61.9 °F 55.6 °F 80% 29.88 in 10.0 mi South 3.5 mph - N/A   Clear
9:56 PM 61.2 °F 55.6 °F 82% 29.88 in 10.0 mi South 4.6 mph - N/A   Clear
10:15 PM 61.7 °F 55.9 °F 81% 29.87 in 10.0 mi South 5.8 mph - N/A   Clear
10:16 PM 61.7 °F 55.9 °F 81% 29.87 in 10.0 mi South 4.6 mph - N/A   Clear
10:35 PM 61.2 °F 55.8 °F 82% 29.86 in 10.0 mi South 4.6 mph - N/A   Clear
10:59 PM 62.6 °F 55.9 °F 79% 29.85 in 10.0 mi South 6.9 mph - N/A   Clear
11:17 PM 62.6 °F 55.9 °F 79% 29.84 in 10.0 mi South 6.9 mph - N/A   Clear
11:35 PM 61.5 °F 55.6 °F 81% 29.84 in 10.0 mi South 5.8 mph - N/A   Clear
11:36 PM 61.3 °F 55.6 °F 81% 29.84 in 10.0 mi SSW 4.6 mph - N/A   Clear
11:55 PM 61.5 °F 55.8 °F 81% 29.84 in 10.0 mi SSW 4.6 mph - N/A   Clear